[[{"header":{"parameterUnit":"m.s-1","parameterCategory":1,"la1":30.2991,"la2":30.254,"lo1":-89.0895,"lo2":-89.0444,"dy":0.0017,"dx":0.0017,"nx":28,"ny":28,"refTime":"2024-10-19T21:00:00:Z","depth":0,"parameterNumber":2,"parameterNumberName":"U-component_of_WINDS"},"data":[0,0,0,0,0,0,0,0,0,0,0,0,0,0,0,0,0,0,0,0,0,0,0,0,0,0,0,0,0,0,0,0,0,0,0,0,0,0,0,0,0,0,0,0,0,0,0,0,0,0,0,0,0,0,0,0,0,0,-3.4686,-3.4685,0,-3.4648,-3.4648,-3.4647,-3.4556,-3.4554,-3.4552,-3.455,-3.4514,-3.4515,-3.4516,0,0,0,0,0,0,0,0,0,0,0,0,0,-3.4682,-3.4683,-3.4686,-3.4685,-3.4685,-3.4648,-3.4648,-3.4647,-3.4556,-3.4554,-3.4552,-3.4549,-3.4514,-3.4515,-3.4516,0,0,0,0,0,0,0,0,0,0,0,0,0,-3.4668,-3.4683,-3.4686,-3.4635,-3.463,-3.4648,-3.4648,-3.4647,-3.4557,-3.4554,-3.4551,-3.4548,-3.4514,-3.4515,-3.4516,-3.4581,0,0,-3.452,-3.452,0,0,0,0,0,0,0,0,-3.4669,-3.4669,-3.4643,-3.4639,-3.4633,-3.4604,-3.4633,-3.4625,-3.4557,-3.4585,-3.455,-3.4547,-3.4546,-3.4545,-3.4544,-3.4579,-3.4578,-3.452,-3.4521,-3.4521,-3.4522,0,0,0,0,0,0,0,-3.467,-3.467,-3.4671,-3.4643,-3.4637,-3.4615,-3.461,-3.4631,-3.4582,-3.4582,-3.4575,-3.4572,-3.4543,-3.4543,-3.4543,-3.4577,-3.452,-3.4521,-3.4522,-3.4522,-3.4667,-3.467,0,0,0,0,0,0,-3.4678,-3.4671,-3.4672,-3.467,-3.4644,-3.4618,-3.4612,-3.4616,-3.4582,-3.4574,-3.4575,-3.4568,-3.4542,-3.4541,-3.4541,-3.4617,-3.4521,-3.4522,-3.4523,-3.4664,-3.4668,-3.4671,0,0,0,0,0,0,-3.4679,-3.4679,-3.4674,-3.4669,-3.4666,-3.4621,-3.4626,-3.4617,-3.4617,-3.4576,-3.4567,-3.4583,-3.454,-3.4539,-3.4572,-3.4614,-3.4523,-3.4524,-3.466,-3.4665,-3.4669,-3.4768,0,0,0,0,0,0,-3.4679,-3.468,-3.4703,-3.467,-3.4667,-3.4705,-3.4629,-3.4618,-3.4619,-3.461,-3.4582,-3.4574,-3.4538,-3.4571,-3.4574,-3.4614,-3.4525,-3.4656,-3.4662,-3.4668,-3.4761,-3.4776,-3.4788,0,0,0,0,0,-3.4679,-3.4733,-3.4705,-3.4706,-3.4695,-3.4707,-3.4706,-3.4662,-3.4622,-3.4646,-3.4621,-3.4575,-3.4609,-3.4575,-3.4577,-3.4619,-3.4653,-3.4661,-3.4667,-3.4755,-3.4773,-3.4788,0,0,0,0,0,0,-3.4773,-3.4727,-3.4696,-3.474,-3.4728,-3.4692,-3.4721,-3.4682,-3.4681,-3.4673,-3.4619,-3.4614,-3.4655,-3.464,-3.4603,-3.4682,-3.4624,-3.4632,-3.469,-3.4707,-3.472,-3.4723,-3.4526,0,0,0,0,0,-3.4798,-3.4811,-3.4771,-3.4814,-3.481,-3.4767,-3.477,-3.4737,-3.4723,-3.4718,-3.4694,-3.4683,-3.4691,-3.4698,-3.4703,-3.4758,-3.4752,-3.4788,-3.4802,-3.4813,-3.4821,-3.4852,-3.4868,-3.4694,-3.4694,-3.4694,0,0,-3.4852,-3.4829,-3.484,-3.4832,-3.4819,-3.4835,-3.4763,-3.4782,-3.4794,-3.4721,-3.4751,-3.4734,-3.4718,-3.4763,-3.4782,-3.4752,-3.4868,-3.4822,-3.4831,-3.4833,-3.4861,-3.4877,-3.4892,-3.4699,-3.4698,-3.4697,0,0,-3.4958,-3.4941,-3.4975,-3.4964,-3.4945,-3.4916,-3.4925,-3.4895,-3.488,-3.4909,-3.4856,-3.4869,-3.4884,-3.4875,-3.4873,-3.4978,-3.4937,-3.4981,-3.5052,-3.5083,-3.5097,-3.5109,-3.5148,-3.5163,-3.4988,-3.4989,-3.4989,0,-3.5027,-3.5048,-3.4998,-3.5022,-3.5021,-3.4955,-3.4991,-3.4983,-3.4967,-3.4969,-3.4935,-3.4953,-3.4938,-3.4981,-3.5007,-3.5007,-3.5016,-3.4984,-3.5098,-3.511,-3.512,-3.5158,-3.5172,-3.4994,-3.4994,-3.4993,-3.4992,0,-3.5135,-3.515,-3.5181,-3.5167,-3.517,-3.5199,-3.5156,-3.5165,-3.5132,-3.5107,-3.5139,-3.5118,-3.5119,-3.5127,-3.5095,-3.5167,-3.5149,-3.5108,-3.5049,-3.5143,-3.5178,-3.5191,-3.5002,-3.5,-3.4999,-3.4997,0,0,-3.5298,-3.5258,-3.527,-3.5264,-3.5239,-3.5251,-3.5278,-3.5279,-3.5288,-3.528,-3.5303,-3.5318,-3.528,-3.5277,-3.5244,-3.5271,-3.5358,-3.5226,-3.5225,-3.5254,-3.5438,-3.5471,-3.5488,-3.533,-3.5333,-3.5335,-3.544,0,-3.54,-3.5444,-3.5401,-3.5454,-3.5469,-3.5408,-3.5432,-3.542,-3.5398,-3.5409,-3.5384,-3.5397,-3.5344,-3.5343,-3.5366,-3.5342,-3.5395,-3.5334,-3.5353,-3.5355,-3.5361,-3.5505,-3.5539,-3.564,-3.5453,-3.5455,-3.5457,0,-3.5523,-3.5521,-3.5576,-3.5549,-3.5554,-3.5576,-3.5574,-3.5584,-3.5571,-3.5553,-3.5551,-3.5511,-3.5538,-3.548,-3.5517,-3.5477,-3.5482,-3.5472,-3.5475,-3.5477,-3.5413,-3.5513,-3.5671,-3.5687,-3.5477,-3.5475,-3.5474,0,-3.564,-3.565,-3.5685,-3.5682,-3.5651,-3.5668,-3.5657,-3.564,-3.5643,-3.5642,-3.5644,-3.5646,-3.5648,-3.5651,-3.5613,-3.5574,-3.5657,-3.5595,-3.5644,-3.5646,-3.5666,-3.5665,-3.5829,-3.5666,-3.5666,-3.5666,-3.5666,0,-3.5759,-3.5795,-3.5737,-3.5759,-3.5799,-3.575,-3.5791,-3.5773,-3.5759,-3.5777,-3.5724,-3.5742,-3.569,-3.5704,-3.5674,-3.5711,-3.5712,-3.57,-3.5692,-3.5706,-3.5708,-3.571,-3.5703,-3.567,-3.5669,-3.5668,-3.5667,0,-3.5896,-3.5859,-3.5893,-3.5861,-3.5854,-3.5885,-3.5859,-3.5878,-3.5853,-3.5877,-3.5879,-3.584,-3.5854,-3.5816,-3.5823,-3.5804,-3.5858,-3.5838,-3.5863,-3.5858,-3.5911,-3.5907,-3.6083,-3.6105,-3.5926,-3.5928,-3.5929,0,-3.5975,-3.6002,-3.5973,-3.5981,-3.5973,-3.5986,-3.599,-3.5943,-3.5949,-3.5937,-3.5959,-3.5967,-3.5972,-3.5997,-3.597,-3.5976,-3.5957,-3.6018,-3.5957,-3.5971,-3.596,-3.596,-3.5964,-3.6031,-3.6033,-3.6035,-3.6037,0,-3.612,-3.6101,-3.6107,-3.6109,-3.6114,-3.6113,-3.6108,-3.6118,-3.6069,-3.6079,-3.6092,-3.6095,-3.6103,-3.6114,-3.6114,-3.6103,-3.6063,-3.6056,-3.6068,-3.6083,-3.6098,-3.6093,-3.59,-3.6052,-3.6051,-3.6049,-3.6049,-3.6048,-3.6232,-3.6254,-3.6238,-3.6248,-3.6239,-3.6236,-3.6254,-3.6231,-3.6241,-3.6243,-3.6215,-3.6235,-3.6222,-3.6219,-3.6212,-3.6228,-3.62,-3.6217,-3.6222,-3.6227,-3.6237,-3.6094,-3.6227,-3.6227,-3.6226,-3.6226,-3.6226,0,-3.6376,-3.6363,-3.6372,-3.6368,-3.6376,-3.6336,-3.6329,-3.634,-3.6357,-3.6348,-3.6354,-3.6371,-3.6381,-3.6355,-3.6362,-3.638,-3.6362,-3.6383,-3.6383,-3.6381,-3.6261,-3.625,-3.6398,-3.6398,-3.6398,-3.6398,-3.6398,-3.6398,-3.6452,-3.6488,-3.6467,-3.6498,-3.6485,-3.6503,-3.6503,-3.6501,-3.6494,-3.6514,-3.6523,-3.6505,-3.6491,-3.6496,-3.6505,-3.6497,-3.6503,-3.6532,-3.6518,-3.6406,-3.6389,-3.6374,-3.6364,-3.6533,-3.6533,-3.6638,-3.6639,-3.6639]},{"header":{"parameterUnit":"m.s-1","parameterCategory":1,"la1":30.2991,"la2":30.254,"lo1":-89.0895,"lo2":-89.0444,"dy":0.0017,"dx":0.0017,"nx":28,"ny":28,"refTime":"2024-10-19T21:00:00:Z","depth":0,"parameterNumber":3,"parameterNumberName":"V-component_of_WINDS"},"data":[0,0,0,0,0,0,0,0,0,0,0,0,0,0,0,0,0,0,0,0,0,0,0,0,0,0,0,0,0,0,0,0,0,0,0,0,0,0,0,0,0,0,0,0,0,0,0,0,0,0,0,0,0,0,0,0,0,0,-1.3095,-1.3096,0,-1.3131,-1.3132,-1.3132,-1.312,-1.312,-1.3119,-1.3118,-1.3155,-1.3157,-1.3158,0,0,0,0,0,0,0,0,0,0,0,0,0,-1.3016,-1.3017,-1.3095,-1.3096,-1.3096,-1.3131,-1.3132,-1.3132,-1.312,-1.3119,-1.3119,-1.3118,-1.3154,-1.3156,-1.3158,0,0,0,0,0,0,0,0,0,0,0,0,0,-1.3051,-1.3018,-1.3095,-1.3094,-1.3095,-1.3131,-1.3132,-1.3132,-1.3121,-1.3119,-1.3118,-1.3117,-1.3154,-1.3156,-1.3159,-1.3198,0,0,-1.3167,-1.3168,0,0,0,0,0,0,0,0,-1.3049,-1.3054,-1.3094,-1.3095,-1.3095,-1.312,-1.3117,-1.3154,-1.3121,-1.3111,-1.3118,-1.3117,-1.3144,-1.3148,-1.3157,-1.32,-1.3201,-1.3167,-1.3168,-1.3169,-1.317,0,0,0,0,0,0,0,-1.3046,-1.3052,-1.3109,-1.3095,-1.3095,-1.3092,-1.3096,-1.3124,-1.3134,-1.3112,-1.3111,-1.3115,-1.3144,-1.3154,-1.3158,-1.3202,-1.3167,-1.3169,-1.3171,-1.3172,-1.328,-1.3281,0,0,0,0,0,0,-1.3044,-1.305,-1.3108,-1.3111,-1.3069,-1.3095,-1.3099,-1.3113,-1.3133,-1.3135,-1.3116,-1.3115,-1.3151,-1.3155,-1.3159,-1.3208,-1.3169,-1.3172,-1.3173,-1.3278,-1.328,-1.3282,0,0,0,0,0,0,-1.3042,-1.3049,-1.3107,-1.308,-1.3087,-1.3097,-1.3114,-1.3115,-1.3125,-1.3137,-1.3138,-1.3125,-1.315,-1.3155,-1.3189,-1.3209,-1.3173,-1.3175,-1.3277,-1.3279,-1.3281,-1.3305,0,0,0,0,0,0,-1.304,-1.3048,-1.3064,-1.3081,-1.3089,-1.3136,-1.3115,-1.3116,-1.3129,-1.3127,-1.3145,-1.3147,-1.3149,-1.3185,-1.3191,-1.3212,-1.3177,-1.3275,-1.3278,-1.328,-1.3302,-1.3307,-1.3311,0,0,0,0,0,-1.3037,-1.3069,-1.3064,-1.3072,-1.3108,-1.3137,-1.3142,-1.3144,-1.3131,-1.3146,-1.3154,-1.3147,-1.3205,-1.3188,-1.3195,-1.3217,-1.3274,-1.3277,-1.328,-1.33,-1.3306,-1.3311,0,0,0,0,0,0,-1.3054,-1.3071,-1.3066,-1.3104,-1.312,-1.3135,-1.3155,-1.315,-1.3169,-1.3167,-1.3168,-1.3172,-1.3207,-1.3215,-1.3196,-1.3256,-1.3238,-1.3242,-1.325,-1.3256,-1.3261,-1.3259,-1.3179,0,0,0,0,0,-1.3062,-1.3084,-1.3098,-1.313,-1.3138,-1.3145,-1.3158,-1.3158,-1.3174,-1.318,-1.319,-1.3206,-1.3227,-1.3242,-1.3262,-1.3302,-1.3307,-1.332,-1.3325,-1.3329,-1.3334,-1.3357,-1.3363,-1.3291,-1.3291,-1.3291,0,0,-1.3079,-1.3091,-1.3105,-1.3134,-1.3145,-1.3169,-1.3151,-1.3176,-1.3194,-1.3184,-1.3217,-1.3224,-1.3242,-1.3279,-1.3296,-1.3287,-1.3354,-1.3333,-1.3336,-1.3338,-1.336,-1.3367,-1.3373,-1.3293,-1.3293,-1.3293,0,0,-1.3122,-1.3133,-1.3162,-1.3174,-1.3192,-1.3197,-1.3203,-1.322,-1.3225,-1.3257,-1.3251,-1.3271,-1.3309,-1.3322,-1.3333,-1.3381,-1.3376,-1.3388,-1.3413,-1.3436,-1.3441,-1.3446,-1.3465,-1.3472,-1.3392,-1.3392,-1.3392,0,-1.3141,-1.3177,-1.3177,-1.3204,-1.3217,-1.3209,-1.3238,-1.325,-1.3273,-1.3283,-1.3272,-1.3319,-1.333,-1.3371,-1.3383,-1.3392,-1.34,-1.3387,-1.344,-1.3446,-1.345,-1.3468,-1.3475,-1.3393,-1.3393,-1.3393,-1.3393,0,-1.32,-1.3225,-1.3246,-1.327,-1.3285,-1.3312,-1.3317,-1.3332,-1.3331,-1.3336,-1.337,-1.3383,-1.3406,-1.3415,-1.3414,-1.3456,-1.345,-1.344,-1.3421,-1.3459,-1.3476,-1.3483,-1.3396,-1.3395,-1.3395,-1.3394,0,0,-1.3257,-1.328,-1.3288,-1.3299,-1.3318,-1.3337,-1.3364,-1.3388,-1.3402,-1.3418,-1.3442,-1.3473,-1.3464,-1.3477,-1.3476,-1.3496,-1.3535,-1.3483,-1.3484,-1.3494,-1.3584,-1.3594,-1.3602,-1.3531,-1.3532,-1.3533,-1.3584,0,-1.3303,-1.3352,-1.3353,-1.3398,-1.3421,-1.3413,-1.3437,-1.3452,-1.3457,-1.3478,-1.3484,-1.3507,-1.3492,-1.35,-1.3519,-1.3527,-1.3554,-1.3522,-1.3554,-1.3555,-1.3552,-1.361,-1.362,-1.3668,-1.359,-1.3591,-1.3592,0,-1.3365,-1.3384,-1.3431,-1.3448,-1.3458,-1.3479,-1.3501,-1.352,-1.3536,-1.3539,-1.3554,-1.355,-1.3579,-1.3557,-1.3597,-1.3576,-1.3588,-1.3594,-1.3596,-1.3601,-1.3578,-1.3619,-1.3683,-1.3691,-1.3602,-1.3601,-1.3601,0,-1.3404,-1.3441,-1.3475,-1.3484,-1.3503,-1.3519,-1.3528,-1.3543,-1.3557,-1.3575,-1.3585,-1.3606,-1.3619,-1.3635,-1.3638,-1.3622,-1.3678,-1.3657,-1.3682,-1.3682,-1.3696,-1.3696,-1.3765,-1.3701,-1.3701,-1.37,-1.37,0,-1.3458,-1.3487,-1.3493,-1.3514,-1.3547,-1.3547,-1.358,-1.3587,-1.36,-1.3623,-1.3616,-1.3637,-1.3638,-1.366,-1.3662,-1.3695,-1.37,-1.3704,-1.3705,-1.3706,-1.3706,-1.3716,-1.3714,-1.3702,-1.3702,-1.3701,-1.3701,0,-1.3508,-1.3512,-1.3549,-1.3564,-1.3569,-1.3593,-1.3606,-1.3626,-1.363,-1.3659,-1.3665,-1.3673,-1.3698,-1.3702,-1.3731,-1.3732,-1.3773,-1.3769,-1.3768,-1.3768,-1.3794,-1.3793,-1.3875,-1.3886,-1.3812,-1.3812,-1.3813,0,-1.3543,-1.3566,-1.3584,-1.3598,-1.3608,-1.3631,-1.3646,-1.3647,-1.3662,-1.3682,-1.37,-1.3724,-1.3744,-1.3785,-1.3793,-1.3816,-1.3813,-1.384,-1.3817,-1.3818,-1.3816,-1.3816,-1.3819,-1.3846,-1.3847,-1.3847,-1.3848,0,-1.3605,-1.3606,-1.3628,-1.365,-1.3668,-1.3685,-1.3702,-1.3714,-1.3717,-1.3734,-1.376,-1.3776,-1.3806,-1.3831,-1.3853,-1.3862,-1.3856,-1.3855,-1.3862,-1.3865,-1.3865,-1.3867,-1.3783,-1.3854,-1.3853,-1.3853,-1.3852,-1.3852,-1.3651,-1.3671,-1.3687,-1.3711,-1.3724,-1.3739,-1.3759,-1.3767,-1.3788,-1.3813,-1.3812,-1.3841,-1.3856,-1.3885,-1.3896,-1.3918,-1.391,-1.392,-1.3923,-1.3926,-1.393,-1.3859,-1.3922,-1.3922,-1.3922,-1.3922,-1.3922,0,-1.3714,-1.3724,-1.3746,-1.377,-1.3789,-1.3781,-1.3799,-1.3816,-1.3841,-1.3856,-1.3876,-1.3906,-1.393,-1.394,-1.3963,-1.3979,-1.3977,-1.3986,-1.3986,-1.3988,-1.3935,-1.3928,-1.3987,-1.3987,-1.3987,-1.3987,-1.3987,-1.3987,-1.375,-1.3785,-1.3788,-1.3829,-1.3838,-1.3867,-1.3878,-1.3892,-1.3904,-1.3939,-1.3959,-1.3965,-1.3978,-1.4002,-1.4024,-1.4026,-1.4036,-1.4046,-1.4048,-1.3998,-1.3992,-1.3986,-1.3978,-1.4048,-1.4048,-1.4099,-1.4099,-1.41]}]]